#datetime,building,power
2022-01-04T00:00:00,sdl,13.06
2022-01-04T00:01:00,sdl,13.02
2022-01-04T00:02:00,sdl,12.98
2022-01-04T00:03:00,sdl,13.05
2022-01-04T00:04:00,sdl,13.07
2022-01-04T00:05:00,sdl,13.06
2022-01-04T00:06:00,sdl,17.14
2022-01-04T00:07:00,sdl,17.16
2022-01-04T00:08:00,sdl,19.41
2022-01-04T00:09:00,sdl,19.38
2022-01-04T00:10:00,sdl,19.85
2022-01-04T00:11:00,sdl,20.01
2022-01-04T00:12:00,sdl,20.02
2022-01-04T00:13:00,sdl,20.54
2022-01-04T00:14:00,sdl,20.03
2022-01-04T00:15:00,sdl,20.11
2022-01-04T00:16:00,sdl,20.50
2022-01-04T00:17:00,sdl,20.37
2022-01-04T00:18:00,sdl,20.02
2022-01-04T00:19:00,sdl,20.04
2022-01-04T00:20:00,sdl,19.91
2022-01-04T00:21:00,sdl,19.95
2022-01-04T00:22:00,sdl,20.58
2022-01-04T00:23:00,sdl,19.78
2022-01-04T00:24:00,sdl,13.73
2022-01-04T00:25:00,sdl,13.73
2022-01-04T00:26:00,sdl,13.63
2022-01-04T00:27:00,sdl,13.49
2022-01-04T00:28:00,sdl,13.48
2022-01-04T00:29:00,sdl,13.40
2022-01-04T00:30:00,sdl,13.34
2022-01-04T00:31:00,sdl,13.43
2022-01-04T00:32:00,sdl,13.43
2022-01-04T00:33:00,sdl,13.43
2022-01-04T00:34:00,sdl,13.33
2022-01-04T00:35:00,sdl,13.35
2022-01-04T00:36:00,sdl,13.35
2022-01-04T00:37:00,sdl,13.47
2022-01-04T00:38:00,sdl,13.51
2022-01-04T00:39:00,sdl,17.68
2022-01-04T00:40:00,sdl,17.24
2022-01-04T00:41:00,sdl,17.26
2022-01-04T00:42:00,sdl,17.29
2022-01-04T00:43:00,sdl,17.17
2022-01-04T00:44:00,sdl,17.24
2022-01-04T00:45:00,sdl,17.48
2022-01-04T00:46:00,sdl,19.66
2022-01-04T00:47:00,sdl,20.03
2022-01-04T00:48:00,sdl,20.06
2022-01-04T00:49:00,sdl,19.64
2022-01-04T00:50:00,sdl,19.77
2022-01-04T00:51:00,sdl,19.73
2022-01-04T00:52:00,sdl,19.62
2022-01-04T00:53:00,sdl,19.42
2022-01-04T00:54:00,sdl,19.41
2022-01-04T00:55:00,sdl,17.09
2022-01-04T00:56:00,sdl,12.94
2022-01-04T00:57:00,sdl,12.93
2022-01-04T00:58:00,sdl,13.07
2022-01-04T00:59:00,sdl,13.01
2022-01-04T01:00:00,sdl,12.96
2022-01-04T01:01:00,sdl,12.88
2022-01-04T01:02:00,sdl,13.50
2022-01-04T01:03:00,sdl,12.93
2022-01-04T01:04:00,sdl,12.96
2022-01-04T01:05:00,sdl,12.99
2022-01-04T01:06:00,sdl,12.99
2022-01-04T01:07:00,sdl,12.88
2022-01-04T01:08:00,sdl,12.83
2022-01-04T01:09:00,sdl,12.86
2022-01-04T01:10:00,sdl,15.08
2022-01-04T01:11:00,sdl,19.87
2022-01-04T01:12:00,sdl,19.46
2022-01-04T01:13:00,sdl,19.57
2022-01-04T01:14:00,sdl,19.35
2022-01-04T01:15:00,sdl,19.50
2022-01-04T01:16:00,sdl,19.44
2022-01-04T01:17:00,sdl,19.51
2022-01-04T01:18:00,sdl,19.98
2022-01-04T01:19:00,sdl,19.94
2022-01-04T01:20:00,sdl,19.56
2022-01-04T01:21:00,sdl,19.55
2022-01-04T01:22:00,sdl,19.50
2022-01-04T01:23:00,sdl,19.41
2022-01-04T01:24:00,sdl,19.49
2022-01-04T01:25:00,sdl,17.22
2022-01-04T01:26:00,sdl,17.15
2022-01-04T01:27:00,sdl,12.88
2022-01-04T01:28:00,sdl,12.87
2022-01-04T01:29:00,sdl,12.91
2022-01-04T01:30:00,sdl,13.30
2022-01-04T01:31:00,sdl,13.28
2022-01-04T01:32:00,sdl,13.31
2022-01-04T01:33:00,sdl,13.32
2022-01-04T01:34:00,sdl,13.29
2022-01-04T01:35:00,sdl,13.27
2022-01-04T01:36:00,sdl,13.22
2022-01-04T01:37:00,sdl,13.26
2022-01-04T01:38:00,sdl,13.27
2022-01-04T01:39:00,sdl,13.34
2022-01-04T01:40:00,sdl,13.44
2022-01-04T01:41:00,sdl,13.44
2022-01-04T01:42:00,sdl,13.43
2022-01-04T01:43:00,sdl,13.98
2022-01-04T01:44:00,sdl,14.20
2022-01-04T01:45:00,sdl,17.79
2022-01-04T01:46:00,sdl,17.66
2022-01-04T01:47:00,sdl,17.84
2022-01-04T01:48:00,sdl,17.81
2022-01-04T01:49:00,sdl,17.80
2022-01-04T01:50:00,sdl,18.16
2022-01-04T01:51:00,sdl,18.19
2022-01-04T01:52:00,sdl,18.12
2022-01-04T01:53:00,sdl,20.55
2022-01-04T01:54:00,sdl,20.61
2022-01-04T01:55:00,sdl,20.47
2022-01-04T01:56:00,sdl,20.46
2022-01-04T01:57:00,sdl,20.46
2022-01-04T01:58:00,sdl,20.03
2022-01-04T01:59:00,sdl,20.03
2022-01-04T02:00:00,sdl,19.97
2022-01-04T02:01:00,sdl,19.86
2022-01-04T02:02:00,sdl,19.79
2022-01-04T02:03:00,sdl,19.87
2022-01-04T02:04:00,sdl,19.70
2022-01-04T02:05:00,sdl,19.67
2022-01-04T02:06:00,sdl,19.83
2022-01-04T02:07:00,sdl,17.52
2022-01-04T02:08:00,sdl,17.54
2022-01-04T02:09:00,sdl,17.55
2022-01-04T02:10:00,sdl,17.58
2022-01-04T02:11:00,sdl,18.70
2022-01-04T02:12:00,sdl,17.49
2022-01-04T02:13:00,sdl,18.09
2022-01-04T02:14:00,sdl,17.46
2022-01-04T02:15:00,sdl,17.45
2022-01-04T02:16:00,sdl,17.32
2022-01-04T02:17:00,sdl,17.34
2022-01-04T02:18:00,sdl,17.35
2022-01-04T02:19:00,sdl,17.47
2022-01-04T02:20:00,sdl,19.74
2022-01-04T02:21:00,sdl,19.90
2022-01-04T02:22:00,sdl,19.83
2022-01-04T02:23:00,sdl,20.28
2022-01-04T02:24:00,sdl,20.74
2022-01-04T02:25:00,sdl,19.89
2022-01-04T02:26:00,sdl,19.83
2022-01-04T02:27:00,sdl,19.89
2022-01-04T02:28:00,sdl,19.83
2022-01-04T02:29:00,sdl,19.82
2022-01-04T02:30:00,sdl,19.94
2022-01-04T02:31:00,sdl,19.94
2022-01-04T02:32:00,sdl,20.02
2022-01-04T02:33:00,sdl,17.85
2022-01-04T02:34:00,sdl,17.79
2022-01-04T02:35:00,sdl,17.63
2022-01-04T02:36:00,sdl,17.59
2022-01-04T02:37:00,sdl,17.41
2022-01-04T02:38:00,sdl,17.45
2022-01-04T02:39:00,sdl,17.45
2022-01-04T02:40:00,sdl,17.36
2022-01-04T02:41:00,sdl,17.33
2022-01-04T02:42:00,sdl,17.32
2022-01-04T02:43:00,sdl,17.23
2022-01-04T02:44:00,sdl,17.33
2022-01-04T02:45:00,sdl,17.40
2022-01-04T02:46:00,sdl,17.44
2022-01-04T02:47:00,sdl,17.90
2022-01-04T02:48:00,sdl,17.82
2022-01-04T02:49:00,sdl,17.75
2022-01-04T02:50:00,sdl,17.68
2022-01-04T02:51:00,sdl,17.63
2022-01-04T02:52:00,sdl,17.72
2022-01-04T02:53:00,sdl,18.03
2022-01-04T02:54:00,sdl,17.96
2022-01-04T02:55:00,sdl,17.66
2022-01-04T02:56:00,sdl,19.96
2022-01-04T02:57:00,sdl,20.00
2022-01-04T02:58:00,sdl,20.07
2022-01-04T02:59:00,sdl,20.14
2022-01-04T03:00:00,sdl,20.10
2022-01-04T03:01:00,sdl,20.14
2022-01-04T03:02:00,sdl,20.10
2022-01-04T03:03:00,sdl,20.18
2022-01-04T03:04:00,sdl,20.09
2022-01-04T03:05:00,sdl,20.01
2022-01-04T03:06:00,sdl,20.60
2022-01-04T03:07:00,sdl,20.02
2022-01-04T03:08:00,sdl,17.91
2022-01-04T03:09:00,sdl,17.97
2022-01-04T03:10:00,sdl,17.87
2022-01-04T03:11:00,sdl,18.07
2022-01-04T03:12:00,sdl,17.97
2022-01-04T03:13:00,sdl,18.16
2022-01-04T03:14:00,sdl,18.15
2022-01-04T03:15:00,sdl,17.74
2022-01-04T03:16:00,sdl,17.74
2022-01-04T03:17:00,sdl,18.27
2022-01-04T03:18:00,sdl,17.68
2022-01-04T03:19:00,sdl,18.08
2022-01-04T03:20:00,sdl,18.14
2022-01-04T03:21:00,sdl,17.62
2022-01-04T03:22:00,sdl,20.42
2022-01-04T03:23:00,sdl,20.43
2022-01-04T03:24:00,sdl,20.21
2022-01-04T03:25:00,sdl,20.04
2022-01-04T03:26:00,sdl,20.08
2022-01-04T03:27:00,sdl,20.12
2022-01-04T03:28:00,sdl,20.03
2022-01-04T03:29:00,sdl,20.09
2022-01-04T03:30:00,sdl,19.98
2022-01-04T03:31:00,sdl,19.94
2022-01-04T03:32:00,sdl,19.72
2022-01-04T03:33:00,sdl,19.79
2022-01-04T03:34:00,sdl,19.78
2022-01-04T03:35:00,sdl,19.88
2022-01-04T03:36:00,sdl,17.80
2022-01-04T03:37:00,sdl,17.70
2022-01-04T03:38:00,sdl,17.56
2022-01-04T03:39:00,sdl,17.56
2022-01-04T03:40:00,sdl,17.45
2022-01-04T03:41:00,sdl,17.57
2022-01-04T03:42:00,sdl,17.55
2022-01-04T03:43:00,sdl,17.56
2022-01-04T03:44:00,sdl,17.41
2022-01-04T03:45:00,sdl,17.24
2022-01-04T03:46:00,sdl,17.26
2022-01-04T03:47:00,sdl,17.22
2022-01-04T03:48:00,sdl,17.35
2022-01-04T03:49:00,sdl,18.06
2022-01-04T03:50:00,sdl,17.56
2022-01-04T03:51:00,sdl,17.54
2022-01-04T03:52:00,sdl,17.82
2022-01-04T03:53:00,sdl,17.78
2022-01-04T03:54:00,sdl,17.44
2022-01-04T03:55:00,sdl,17.43
2022-01-04T03:56:00,sdl,17.52
2022-01-04T03:57:00,sdl,17.53
2022-01-04T03:58:00,sdl,17.60
2022-01-04T03:59:00,sdl,19.49
2022-01-04T04:00:00,sdl,19.70
2022-01-04T04:01:00,sdl,19.74
2022-01-04T04:02:00,sdl,20.06
2022-01-04T04:03:00,sdl,19.98
2022-01-04T04:04:00,sdl,20.10
2022-01-04T04:05:00,sdl,20.09
2022-01-04T04:06:00,sdl,19.91
2022-01-04T04:07:00,sdl,19.88
2022-01-04T04:08:00,sdl,19.90
2022-01-04T04:09:00,sdl,19.98
2022-01-04T04:10:00,sdl,20.09
2022-01-04T04:11:00,sdl,20.20
2022-01-04T04:12:00,sdl,20.19
2022-01-04T04:13:00,sdl,20.19
2022-01-04T04:14:00,sdl,20.72
2022-01-04T04:15:00,sdl,17.94
2022-01-04T04:16:00,sdl,18.12
2022-01-04T04:17:00,sdl,17.96
2022-01-04T04:18:00,sdl,17.95
2022-01-04T04:19:00,sdl,17.98
2022-01-04T04:20:00,sdl,18.57
2022-01-04T04:21:00,sdl,18.05
2022-01-04T04:22:00,sdl,18.31
2022-01-04T04:23:00,sdl,18.33
2022-01-04T04:24:00,sdl,18.02
2022-01-04T04:25:00,sdl,17.97
2022-01-04T04:26:00,sdl,18.11
2022-01-04T04:27:00,sdl,18.07
2022-01-04T04:28:00,sdl,18.56
2022-01-04T04:29:00,sdl,19.88
2022-01-04T04:30:00,sdl,19.94
2022-01-04T04:31:00,sdl,19.98
2022-01-04T04:32:00,sdl,19.99
2022-01-04T04:33:00,sdl,19.94
2022-01-04T04:34:00,sdl,19.85
2022-01-04T04:35:00,sdl,19.66
2022-01-04T04:36:00,sdl,19.67
2022-01-04T04:37:00,sdl,19.59
2022-01-04T04:38:00,sdl,19.68
2022-01-04T04:39:00,sdl,19.76
2022-01-04T04:40:00,sdl,17.47
2022-01-04T04:41:00,sdl,17.39
2022-01-04T04:42:00,sdl,17.28
2022-01-04T04:43:00,sdl,17.53
2022-01-04T04:44:00,sdl,17.43
2022-01-04T04:45:00,sdl,17.42
2022-01-04T04:46:00,sdl,17.40
2022-01-04T04:47:00,sdl,17.45
2022-01-04T04:48:00,sdl,17.40
2022-01-04T04:49:00,sdl,17.42
2022-01-04T04:50:00,sdl,17.38
2022-01-04T04:51:00,sdl,17.34
2022-01-04T04:52:00,sdl,17.88
2022-01-04T04:53:00,sdl,18.08
2022-01-04T04:54:00,sdl,17.53
2022-01-04T04:55:00,sdl,17.55
2022-01-04T04:56:00,sdl,17.49
2022-01-04T04:57:00,sdl,17.41
2022-01-04T04:58:00,sdl,17.50
2022-01-04T04:59:00,sdl,17.52
2022-01-04T05:00:00,sdl,17.56
2022-01-04T05:01:00,sdl,19.69
2022-01-04T05:02:00,sdl,19.75
2022-01-04T05:03:00,sdl,19.79
2022-01-04T05:04:00,sdl,19.87
2022-01-04T05:05:00,sdl,19.99
2022-01-04T05:06:00,sdl,20.07
2022-01-04T05:07:00,sdl,20.04
2022-01-04T05:08:00,sdl,21.18
2022-01-04T05:09:00,sdl,20.49
2022-01-04T05:10:00,sdl,19.76
2022-01-04T05:11:00,sdl,19.84
2022-01-04T05:12:00,sdl,19.84
2022-01-04T05:13:00,sdl,20.26
2022-01-04T05:14:00,sdl,19.65
2022-01-04T05:15:00,sdl,19.86
2022-01-04T05:16:00,sdl,17.61
2022-01-04T05:17:00,sdl,17.90
2022-01-04T05:18:00,sdl,17.77
2022-01-04T05:19:00,sdl,17.77
2022-01-04T05:20:00,sdl,17.85
2022-01-04T05:21:00,sdl,17.93
2022-01-04T05:22:00,sdl,17.88
2022-01-04T05:23:00,sdl,18.16
2022-01-04T05:24:00,sdl,18.04
2022-01-04T05:25:00,sdl,17.95
2022-01-04T05:26:00,sdl,17.68
2022-01-04T05:27:00,sdl,17.80
2022-01-04T05:28:00,sdl,17.66
2022-01-04T05:29:00,sdl,17.65
2022-01-04T05:30:00,sdl,18.51
2022-01-04T05:31:00,sdl,17.84
2022-01-04T05:32:00,sdl,20.16
2022-01-04T05:33:00,sdl,21.43
2022-01-04T05:34:00,sdl,20.22
2022-01-04T05:35:00,sdl,20.14
2022-01-04T05:36:00,sdl,20.01
2022-01-04T05:37:00,sdl,19.99
2022-01-04T05:38:00,sdl,20.05
2022-01-04T05:39:00,sdl,20.28
2022-01-04T05:40:00,sdl,20.12
2022-01-04T05:41:00,sdl,21.02
2022-01-04T05:42:00,sdl,17.53
2022-01-04T05:43:00,sdl,17.74
2022-01-04T05:44:00,sdl,17.66
2022-01-04T05:45:00,sdl,17.72
2022-01-04T05:46:00,sdl,17.54
2022-01-04T05:47:00,sdl,18.25
2022-01-04T05:48:00,sdl,17.61
2022-01-04T05:49:00,sdl,17.42
2022-01-04T05:50:00,sdl,17.58
2022-01-04T05:51:00,sdl,17.49
2022-01-04T05:52:00,sdl,17.47
2022-01-04T05:53:00,sdl,17.41
2022-01-04T05:54:00,sdl,17.50
2022-01-04T05:55:00,sdl,17.57
2022-01-04T05:56:00,sdl,19.13
2022-01-04T05:57:00,sdl,17.84
2022-01-04T05:58:00,sdl,17.45
2022-01-04T05:59:00,sdl,17.38
2022-01-04T06:00:00,sdl,19.67
2022-01-04T06:01:00,sdl,19.96
2022-01-04T06:02:00,sdl,19.91
2022-01-04T06:03:00,sdl,19.92
2022-01-04T06:04:00,sdl,19.85
2022-01-04T06:05:00,sdl,19.84
2022-01-04T06:06:00,sdl,19.80
2022-01-04T06:07:00,sdl,19.83
2022-01-04T06:08:00,sdl,19.85
2022-01-04T06:09:00,sdl,19.95
2022-01-04T06:10:00,sdl,20.04
2022-01-04T06:11:00,sdl,20.05
2022-01-04T06:12:00,sdl,19.97
2022-01-04T06:13:00,sdl,19.82
2022-01-04T06:14:00,sdl,20.28
2022-01-04T06:15:00,sdl,21.51
2022-01-04T06:16:00,sdl,17.94
2022-01-04T06:17:00,sdl,17.96
2022-01-04T06:18:00,sdl,18.05
2022-01-04T06:19:00,sdl,18.18
2022-01-04T06:20:00,sdl,18.23
2022-01-04T06:21:00,sdl,18.91
2022-01-04T06:22:00,sdl,18.37
2022-01-04T06:23:00,sdl,18.55
2022-01-04T06:24:00,sdl,18.58
2022-01-04T06:25:00,sdl,18.60
2022-01-04T06:26:00,sdl,19.88
2022-01-04T06:27:00,sdl,19.15
2022-01-04T06:28:00,sdl,19.13
2022-01-04T06:29:00,sdl,19.08
2022-01-04T06:30:00,sdl,20.77
2022-01-04T06:31:00,sdl,20.62
2022-01-04T06:32:00,sdl,20.58
2022-01-04T06:33:00,sdl,20.48
2022-01-04T06:34:00,sdl,20.58
2022-01-04T06:35:00,sdl,20.68
2022-01-04T06:36:00,sdl,20.67
2022-01-04T06:37:00,sdl,20.53
2022-01-04T06:38:00,sdl,20.52
2022-01-04T06:39:00,sdl,20.01
2022-01-04T06:40:00,sdl,20.06
2022-01-04T06:41:00,sdl,17.88
2022-01-04T06:42:00,sdl,17.88
2022-01-04T06:43:00,sdl,17.97
2022-01-04T06:44:00,sdl,18.04
2022-01-04T06:45:00,sdl,17.90
2022-01-04T06:46:00,sdl,17.92
2022-01-04T06:47:00,sdl,18.08
2022-01-04T06:48:00,sdl,18.05
2022-01-04T06:49:00,sdl,32.32
2022-01-04T06:50:00,sdl,32.13
2022-01-04T06:51:00,sdl,31.98
2022-01-04T06:52:00,sdl,17.94
2022-01-04T06:53:00,sdl,29.68
2022-01-04T06:54:00,sdl,19.69
2022-01-04T06:55:00,sdl,19.55
2022-01-04T06:56:00,sdl,19.83
2022-01-04T06:57:00,sdl,19.86
2022-01-04T06:58:00,sdl,19.37
2022-01-04T06:59:00,sdl,21.66
2022-01-04T07:00:00,sdl,21.64
2022-01-04T07:01:00,sdl,21.66
2022-01-04T07:02:00,sdl,21.63
2022-01-04T07:03:00,sdl,21.57
2022-01-04T07:04:00,sdl,21.65
2022-01-04T07:05:00,sdl,24.69
2022-01-04T07:06:00,sdl,21.48
2022-01-04T07:07:00,sdl,21.62
2022-01-04T07:08:00,sdl,21.77
2022-01-04T07:09:00,sdl,21.71
2022-01-04T07:10:00,sdl,21.71
2022-01-04T07:11:00,sdl,21.69
2022-01-04T07:12:00,sdl,21.91
2022-01-04T07:13:00,sdl,21.74
2022-01-04T07:14:00,sdl,21.69
2022-01-04T07:15:00,sdl,21.68
2022-01-04T07:16:00,sdl,19.62
2022-01-04T07:17:00,sdl,19.08
2022-01-04T07:18:00,sdl,18.93
2022-01-04T07:19:00,sdl,19.05
2022-01-04T07:20:00,sdl,19.02
2022-01-04T07:21:00,sdl,18.82
2022-01-04T07:22:00,sdl,18.84
2022-01-04T07:23:00,sdl,18.93
2022-01-04T07:24:00,sdl,18.79
2022-01-04T07:25:00,sdl,19.23
2022-01-04T07:26:00,sdl,19.21
2022-01-04T07:27:00,sdl,18.80
2022-01-04T07:28:00,sdl,18.88
2022-01-04T07:29:00,sdl,18.72
2022-01-04T07:30:00,sdl,18.85
2022-01-04T07:31:00,sdl,18.79
2022-01-04T07:32:00,sdl,18.59
2022-01-04T07:33:00,sdl,20.74
2022-01-04T07:34:00,sdl,20.75
2022-01-04T07:35:00,sdl,20.90
2022-01-04T07:36:00,sdl,20.75
2022-01-04T07:37:00,sdl,34.01
2022-01-04T07:38:00,sdl,20.72
2022-01-04T07:39:00,sdl,20.88
2022-01-04T07:40:00,sdl,20.36
2022-01-04T07:41:00,sdl,20.50
2022-01-04T07:42:00,sdl,20.44
2022-01-04T07:43:00,sdl,17.72
2022-01-04T07:44:00,sdl,30.78
2022-01-04T07:45:00,sdl,18.41
2022-01-04T07:46:00,sdl,17.91
2022-01-04T07:47:00,sdl,18.45
2022-01-04T07:48:00,sdl,17.94
2022-01-04T07:49:00,sdl,17.83
2022-01-04T07:50:00,sdl,17.86
2022-01-04T07:51:00,sdl,17.81
2022-01-04T07:52:00,sdl,18.40
2022-01-04T07:53:00,sdl,20.00
2022-01-04T07:54:00,sdl,20.86
2022-01-04T07:55:00,sdl,20.80
2022-01-04T07:56:00,sdl,20.52
2022-01-04T07:57:00,sdl,20.30
2022-01-04T07:58:00,sdl,20.24
2022-01-04T07:59:00,sdl,21.55
2022-01-04T08:00:00,sdl,21.42
2022-01-04T08:01:00,sdl,21.36
2022-01-04T08:02:00,sdl,21.37
2022-01-04T08:03:00,sdl,21.46
2022-01-04T08:04:00,sdl,21.11
2022-01-04T08:05:00,sdl,22.26
2022-01-04T08:06:00,sdl,22.96
2022-01-04T08:07:00,sdl,21.53
2022-01-04T08:08:00,sdl,22.33
2022-01-04T08:09:00,sdl,22.21
2022-01-04T08:10:00,sdl,22.24
2022-01-04T08:11:00,sdl,22.22
2022-01-04T08:12:00,sdl,22.24
2022-01-04T08:13:00,sdl,22.07
2022-01-04T08:14:00,sdl,22.01
2022-01-04T08:15:00,sdl,23.24
2022-01-04T08:16:00,sdl,20.78
2022-01-04T08:17:00,sdl,33.55
2022-01-04T08:18:00,sdl,22.07
2022-01-04T08:19:00,sdl,33.42
2022-01-04T08:20:00,sdl,20.87
2022-01-04T08:21:00,sdl,18.57
2022-01-04T08:22:00,sdl,19.16
2022-01-04T08:23:00,sdl,18.65
2022-01-04T08:24:00,sdl,19.89
2022-01-04T08:25:00,sdl,19.37
2022-01-04T08:26:00,sdl,27.45
2022-01-04T08:27:00,sdl,18.91
2022-01-04T08:28:00,sdl,18.97
2022-01-04T08:29:00,sdl,19.28
2022-01-04T08:30:00,sdl,19.61
2022-01-04T08:31:00,sdl,19.87
2022-01-04T08:32:00,sdl,19.85
2022-01-04T08:33:00,sdl,19.85
2022-01-04T08:34:00,sdl,19.71
2022-01-04T08:35:00,sdl,19.96
2022-01-04T08:36:00,sdl,20.09
2022-01-04T08:37:00,sdl,19.96
2022-01-04T08:38:00,sdl,30.30
2022-01-04T08:39:00,sdl,19.38
2022-01-04T08:40:00,sdl,19.59
2022-01-04T08:41:00,sdl,22.07
2022-01-04T08:42:00,sdl,22.16
2022-01-04T08:43:00,sdl,21.91
2022-01-04T08:44:00,sdl,22.88
2022-01-04T08:45:00,sdl,22.78
2022-01-04T08:46:00,sdl,23.04
2022-01-04T08:47:00,sdl,23.09
2022-01-04T08:48:00,sdl,22.97
2022-01-04T08:49:00,sdl,22.22
2022-01-04T08:50:00,sdl,22.15
2022-01-04T08:51:00,sdl,22.07
2022-01-04T08:52:00,sdl,19.90
2022-01-04T08:53:00,sdl,20.07
2022-01-04T08:54:00,sdl,20.30
2022-01-04T08:55:00,sdl,21.30
2022-01-04T08:56:00,sdl,21.24
2022-01-04T08:57:00,sdl,21.27
2022-01-04T08:58:00,sdl,21.40
2022-01-04T08:59:00,sdl,21.38
2022-01-04T09:00:00,sdl,21.30
2022-01-04T09:01:00,sdl,21.29
2022-01-04T09:02:00,sdl,21.42
2022-01-04T09:03:00,sdl,20.88
2022-01-04T09:04:00,sdl,21.62
2022-01-04T09:05:00,sdl,23.00
2022-01-04T09:06:00,sdl,23.33
2022-01-04T09:07:00,sdl,23.29
2022-01-04T09:08:00,sdl,23.51
2022-01-04T09:09:00,sdl,23.45
2022-01-04T09:10:00,sdl,23.49
2022-01-04T09:11:00,sdl,23.46
2022-01-04T09:12:00,sdl,22.87
2022-01-04T09:13:00,sdl,23.34
2022-01-04T09:14:00,sdl,23.39
2022-01-04T09:15:00,sdl,23.40
2022-01-04T09:16:00,sdl,23.15
2022-01-04T09:17:00,sdl,22.96
2022-01-04T09:18:00,sdl,22.54
2022-01-04T09:19:00,sdl,23.94
2022-01-04T09:20:00,sdl,24.58
2022-01-04T09:21:00,sdl,22.50
2022-01-04T09:22:00,sdl,23.79
2022-01-04T09:23:00,sdl,23.82
2022-01-04T09:24:00,sdl,23.64
2022-01-04T09:25:00,sdl,23.20
2022-01-04T09:26:00,sdl,23.35
2022-01-04T09:27:00,sdl,20.37
2022-01-04T09:28:00,sdl,22.17
2022-01-04T09:29:00,sdl,20.43
2022-01-04T09:30:00,sdl,20.38
2022-01-04T09:31:00,sdl,20.50
2022-01-04T09:32:00,sdl,20.41
2022-01-04T09:33:00,sdl,20.62
2022-01-04T09:34:00,sdl,20.56
2022-01-04T09:35:00,sdl,20.70
2022-01-04T09:36:00,sdl,20.70
2022-01-04T09:37:00,sdl,20.69
2022-01-04T09:38:00,sdl,20.48
2022-01-04T09:39:00,sdl,20.62
2022-01-04T09:40:00,sdl,20.50
2022-01-04T09:41:00,sdl,21.00
2022-01-04T09:42:00,sdl,20.41
2022-01-04T09:43:00,sdl,20.89
2022-01-04T09:44:00,sdl,20.33
2022-01-04T09:45:00,sdl,20.55
2022-01-04T09:46:00,sdl,20.72
2022-01-04T09:47:00,sdl,20.81
2022-01-04T09:48:00,sdl,21.15
2022-01-04T09:49:00,sdl,23.18
2022-01-04T09:50:00,sdl,22.89
2022-01-04T09:51:00,sdl,23.56
2022-01-04T09:52:00,sdl,23.37
2022-01-04T09:53:00,sdl,24.15
2022-01-04T09:54:00,sdl,23.24
2022-01-04T09:55:00,sdl,23.48
2022-01-04T09:56:00,sdl,23.32
2022-01-04T09:57:00,sdl,23.34
2022-01-04T09:58:00,sdl,23.07
2022-01-04T09:59:00,sdl,23.15
2022-01-04T10:00:00,sdl,24.40
2022-01-04T10:01:00,sdl,23.64
2022-01-04T10:02:00,sdl,23.21
2022-01-04T10:03:00,sdl,23.20
2022-01-04T10:04:00,sdl,23.32
2022-01-04T10:05:00,sdl,23.59
2022-01-04T10:06:00,sdl,21.36
2022-01-04T10:07:00,sdl,20.96
2022-01-04T10:08:00,sdl,20.81
2022-01-04T10:09:00,sdl,20.87
2022-01-04T10:10:00,sdl,20.92
2022-01-04T10:11:00,sdl,20.86
2022-01-04T10:12:00,sdl,20.74
2022-01-04T10:13:00,sdl,20.67
2022-01-04T10:14:00,sdl,20.55
2022-01-04T10:15:00,sdl,20.36
2022-01-04T10:16:00,sdl,20.19
2022-01-04T10:17:00,sdl,22.55
2022-01-04T10:18:00,sdl,22.47
2022-01-04T10:19:00,sdl,23.26
2022-01-04T10:20:00,sdl,22.77
2022-01-04T10:21:00,sdl,23.06
2022-01-04T10:22:00,sdl,22.44
2022-01-04T10:23:00,sdl,22.54
2022-01-04T10:24:00,sdl,22.63
2022-01-04T10:25:00,sdl,23.73
2022-01-04T10:26:00,sdl,22.41
2022-01-04T10:27:00,sdl,22.43
2022-01-04T10:28:00,sdl,23.87
2022-01-04T10:29:00,sdl,23.86
2022-01-04T10:30:00,sdl,23.76
2022-01-04T10:31:00,sdl,22.57
2022-01-04T10:32:00,sdl,23.28
2022-01-04T10:33:00,sdl,22.58
2022-01-04T10:34:00,sdl,20.16
2022-01-04T10:35:00,sdl,20.21
2022-01-04T10:36:00,sdl,20.48
2022-01-04T10:37:00,sdl,20.33
2022-01-04T10:38:00,sdl,20.33
2022-01-04T10:39:00,sdl,20.39
2022-01-04T10:40:00,sdl,20.31
2022-01-04T10:41:00,sdl,20.22
2022-01-04T10:42:00,sdl,20.08
2022-01-04T10:43:00,sdl,20.28
2022-01-04T10:44:00,sdl,20.32
2022-01-04T10:45:00,sdl,21.71
2022-01-04T10:46:00,sdl,21.12
2022-01-04T10:47:00,sdl,20.34
2022-01-04T10:48:00,sdl,21.46
2022-01-04T10:49:00,sdl,20.81
2022-01-04T10:50:00,sdl,20.53
2022-01-04T10:51:00,sdl,21.41
2022-01-04T10:52:00,sdl,21.57
2022-01-04T10:53:00,sdl,22.95
2022-01-04T10:54:00,sdl,24.07
2022-01-04T10:55:00,sdl,22.93
2022-01-04T10:56:00,sdl,22.87
2022-01-04T10:57:00,sdl,23.11
2022-01-04T10:58:00,sdl,23.01
2022-01-04T10:59:00,sdl,23.52
2022-01-04T11:00:00,sdl,24.74
2022-01-04T11:01:00,sdl,23.02
2022-01-04T11:02:00,sdl,23.17
2022-01-04T11:03:00,sdl,23.17
2022-01-04T11:04:00,sdl,23.22
2022-01-04T11:05:00,sdl,23.11
2022-01-04T11:06:00,sdl,23.28
2022-01-04T11:07:00,sdl,24.15
2022-01-04T11:08:00,sdl,23.05
2022-01-04T11:09:00,sdl,22.96
2022-01-04T11:10:00,sdl,23.02
2022-01-04T11:11:00,sdl,23.06
2022-01-04T11:12:00,sdl,23.19
2022-01-04T11:13:00,sdl,25.55
2022-01-04T11:14:00,sdl,23.77
2022-01-04T11:15:00,sdl,24.54
2022-01-04T11:16:00,sdl,23.47
2022-01-04T11:17:00,sdl,24.45
2022-01-04T11:18:00,sdl,24.96
2022-01-04T11:19:00,sdl,24.88
2022-01-04T11:20:00,sdl,23.86
2022-01-04T11:21:00,sdl,23.88
2022-01-04T11:22:00,sdl,23.93
2022-01-04T11:23:00,sdl,23.88
2022-01-04T11:24:00,sdl,24.59
2022-01-04T11:25:00,sdl,24.44
2022-01-04T11:26:00,sdl,21.81
2022-01-04T11:27:00,sdl,21.66
2022-01-04T11:28:00,sdl,21.61
2022-01-04T11:29:00,sdl,21.71
2022-01-04T11:30:00,sdl,22.82
2022-01-04T11:31:00,sdl,21.62
2022-01-04T11:32:00,sdl,21.41
2022-01-04T11:33:00,sdl,21.47
2022-01-04T11:34:00,sdl,21.53
2022-01-04T11:35:00,sdl,21.44
2022-01-04T11:36:00,sdl,24.19
2022-01-04T11:37:00,sdl,23.59
2022-01-04T11:38:00,sdl,23.60
2022-01-04T11:39:00,sdl,23.55
2022-01-04T11:40:00,sdl,24.54
2022-01-04T11:41:00,sdl,24.75
2022-01-04T11:42:00,sdl,24.58
2022-01-04T11:43:00,sdl,24.72
2022-01-04T11:44:00,sdl,24.84
2022-01-04T11:45:00,sdl,24.48
2022-01-04T11:46:00,sdl,23.99
2022-01-04T11:47:00,sdl,24.97
2022-01-04T11:48:00,sdl,23.56
2022-01-04T11:49:00,sdl,22.57
2022-01-04T11:50:00,sdl,22.56
2022-01-04T11:51:00,sdl,22.56
2022-01-04T11:52:00,sdl,23.16
2022-01-04T11:53:00,sdl,23.05
2022-01-04T11:54:00,sdl,23.98
2022-01-04T11:55:00,sdl,23.12
2022-01-04T11:56:00,sdl,23.02
2022-01-04T11:57:00,sdl,22.91
2022-01-04T11:58:00,sdl,22.94
2022-01-04T11:59:00,sdl,22.89
2022-01-04T12:00:00,sdl,22.86
2022-01-04T12:01:00,sdl,22.94
2022-01-04T12:02:00,sdl,22.91
2022-01-04T12:03:00,sdl,22.89
2022-01-04T12:04:00,sdl,22.88
2022-01-04T12:05:00,sdl,22.97
2022-01-04T12:06:00,sdl,22.89
2022-01-04T12:07:00,sdl,23.01
2022-01-04T12:08:00,sdl,22.98
2022-01-04T12:09:00,sdl,23.08
2022-01-04T12:10:00,sdl,22.96
2022-01-04T12:11:00,sdl,22.90
2022-01-04T12:12:00,sdl,23.29
2022-01-04T12:13:00,sdl,23.35
2022-01-04T12:14:00,sdl,24.70
2022-01-04T12:15:00,sdl,23.04
2022-01-04T12:16:00,sdl,23.19
2022-01-04T12:17:00,sdl,24.60
2022-01-04T12:18:00,sdl,24.73
2022-01-04T12:19:00,sdl,23.46
2022-01-04T12:20:00,sdl,23.06
2022-01-04T12:21:00,sdl,23.10
2022-01-04T12:22:00,sdl,23.11
2022-01-04T12:23:00,sdl,23.15
2022-01-04T12:24:00,sdl,23.09
2022-01-04T12:25:00,sdl,23.23
2022-01-04T12:26:00,sdl,23.07
2022-01-04T12:27:00,sdl,23.12
2022-01-04T12:28:00,sdl,22.96
2022-01-04T12:29:00,sdl,23.61
2022-01-04T12:30:00,sdl,23.82
2022-01-04T12:31:00,sdl,23.12
2022-01-04T12:32:00,sdl,20.82
2022-01-04T12:33:00,sdl,20.86
2022-01-04T12:34:00,sdl,20.88
2022-01-04T12:35:00,sdl,20.81
2022-01-04T12:36:00,sdl,22.21
2022-01-04T12:37:00,sdl,22.44
2022-01-04T12:38:00,sdl,22.72
2022-01-04T12:39:00,sdl,22.60
2022-01-04T12:40:00,sdl,22.75
2022-01-04T12:41:00,sdl,22.79
2022-01-04T12:42:00,sdl,21.61
2022-01-04T12:43:00,sdl,21.62
2022-01-04T12:44:00,sdl,24.74
2022-01-04T12:45:00,sdl,23.58
2022-01-04T12:46:00,sdl,24.61
2022-01-04T12:47:00,sdl,23.64
2022-01-04T12:48:00,sdl,23.38
2022-01-04T12:49:00,sdl,24.48
2022-01-04T12:50:00,sdl,24.63
2022-01-04T12:51:00,sdl,24.47
2022-01-04T12:52:00,sdl,24.51
2022-01-04T12:53:00,sdl,25.06
2022-01-04T12:54:00,sdl,24.36
2022-01-04T12:55:00,sdl,23.89
2022-01-04T12:56:00,sdl,25.60
2022-01-04T12:57:00,sdl,25.75
2022-01-04T12:58:00,sdl,25.77
2022-01-04T12:59:00,sdl,25.32
2022-01-04T13:00:00,sdl,25.23
2022-01-04T13:01:00,sdl,24.21
2022-01-04T13:02:00,sdl,24.23
2022-01-04T13:03:00,sdl,24.33
2022-01-04T13:04:00,sdl,24.21
2022-01-04T13:05:00,sdl,24.18
2022-01-04T13:06:00,sdl,24.27
2022-01-04T13:07:00,sdl,24.88
2022-01-04T13:08:00,sdl,25.55
2022-01-04T13:09:00,sdl,25.54
2022-01-04T13:10:00,sdl,25.48
2022-01-04T13:11:00,sdl,25.73
2022-01-04T13:12:00,sdl,24.46
2022-01-04T13:13:00,sdl,25.45
2022-01-04T13:14:00,sdl,25.28
2022-01-04T13:15:00,sdl,25.48
2022-01-04T13:16:00,sdl,25.85
2022-01-04T13:17:00,sdl,23.50
2022-01-04T13:18:00,sdl,22.43